EWG2581 LEPA-EDDS

Flight info

Callsign EWG2581
Flight time 1h 53m
Altitude 35000
Route MEROS N853 LUMAS DCT MAXIR DCT LUSOL DCT BODRU DCT OKTET DCT IRMAR DCT KINES DCT VANAS DCT MOBLO DCT LAMUR DCT KORED DCT BERSU N871 DITON T163 ZUE T125 REUTL REUTL1W
Aircraft A320/M-SDE3FGHIRWY/LB1

Departure

Time 2026-05-04 15:11
Airport Palma de Mallorca Airport (LEPA)

Arrival

Time 2026-05-04 17:04
Airport Stuttgart Airport (EDDS)
Time Latitude Longitude Altitude Speed Heading
2026-05-04 14:22 39.54944 2.73765 39 ft 0 kts 239°
2026-05-04 14:55 39.54957 2.73792 38 ft 4 kts 239°
2026-05-04 14:55 39.54970 2.73822 38 ft 4 kts 239°
2026-05-04 14:55 39.54981 2.73846 38 ft 4 kts 251°
2026-05-04 14:56 39.54984 2.73879 38 ft 4 kts 290°
2026-05-04 14:56 39.54970 2.73904 38 ft 2 kts 328°
2026-05-04 14:56 39.54968 2.73906 38 ft 0 kts 329°
2026-05-04 15:01 39.54983 2.73894 38 ft 6 kts 329°
2026-05-04 15:01 39.55030 2.73857 38 ft 8 kts 329°
2026-05-04 15:01 39.55070 2.73826 38 ft 6 kts 329°
2026-05-04 15:01 39.55103 2.73800 38 ft 6 kts 329°
2026-05-04 15:02 39.55145 2.73777 38 ft 6 kts 356°
2026-05-04 15:02 39.55172 2.73803 38 ft 4 kts 53°
2026-05-04 15:02 39.55204 2.73822 38 ft 7 kts 352°
2026-05-04 15:02 39.55257 2.73786 38 ft 10 kts 327°
2026-05-04 15:03 39.55327 2.73729 38 ft 14 kts 330°
2026-05-04 15:03 39.55417 2.73659 38 ft 16 kts 328°
2026-05-04 15:03 39.55507 2.73589 38 ft 14 kts 329°
2026-05-04 15:03 39.55590 2.73524 38 ft 13 kts 328°
2026-05-04 15:04 39.55662 2.73520 38 ft 10 kts 43°
2026-05-04 15:04 39.55699 2.73593 38 ft 9 kts 58°
2026-05-04 15:04 39.55728 2.73656 38 ft 7 kts 59°
2026-05-04 15:04 39.55752 2.73708 38 ft 6 kts 58°
2026-05-04 15:05 39.55772 2.73750 38 ft 5 kts 58°
2026-05-04 15:05 39.55807 2.73821 38 ft 14 kts 58°
2026-05-04 15:05 39.55854 2.73921 38 ft 12 kts 58°
2026-05-04 15:05 39.55895 2.74007 38 ft 10 kts 58°
2026-05-04 15:06 39.55930 2.74082 38 ft 9 kts 59°
2026-05-04 15:06 39.55958 2.74144 38 ft 7 kts 59°
2026-05-04 15:06 39.55997 2.74227 38 ft 12 kts 55°
2026-05-04 15:07 39.56088 2.74300 38 ft 6 kts 27°
2026-05-04 15:07 39.56119 2.74321 38 ft 5 kts 27°
2026-05-04 15:07 39.56133 2.74331 38 ft 0 kts 28°
2026-05-04 15:09 39.56139 2.74335 38 ft 4 kts 28°
2026-05-04 15:09 39.56185 2.74349 38 ft 7 kts 355°
2026-05-04 15:09 39.56227 2.74297 38 ft 10 kts 292°
2026-05-04 15:10 39.56209 2.74227 38 ft 0 kts 238°
2026-05-04 15:10 39.56156 2.74115 38 ft 47 kts 238°
2026-05-04 15:11 39.55863 2.73499 38 ft 110 kts 239°
2026-05-04 15:11 39.55369 2.72458 41 ft 160 kts 238°
2026-05-04 15:11 39.54761 2.71237 568 ft 161 kts 236°
2026-05-04 15:11 39.54077 2.69939 831 ft 192 kts 235°
2026-05-04 15:12 39.53223 2.68336 751 ft 237 kts 237°
2026-05-04 15:12 39.52383 2.66525 1776 ft 225 kts 240°
2026-05-04 15:12 39.51626 2.64825 2801 ft 220 kts 240°
2026-05-04 15:12 39.50856 2.63108 3594 ft 221 kts 239°
2026-05-04 15:13 39.50043 2.61399 4314 ft 227 kts 232°
2026-05-04 15:13 39.48732 2.60120 4635 ft 250 kts 201°
2026-05-04 15:13 39.47022 2.59339 5093 ft 268 kts 203°
2026-05-04 15:13 39.45320 2.58280 5843 ft 274 kts 208°
2026-05-04 15:14 39.43612 2.57149 6621 ft 278 kts 200°
2026-05-04 15:14 39.41690 2.56929 7336 ft 284 kts 167°
2026-05-04 15:14 39.39884 2.57974 8064 ft 288 kts 145°
2026-05-04 15:14 39.38481 2.59829 8770 ft 293 kts 122°
2026-05-04 15:15 39.37781 2.62262 9435 ft 297 kts 97°
2026-05-04 15:15 39.37847 2.64943 10098 ft 301 kts 84°
2026-05-04 15:15 39.38078 2.67703 10387 ft 320 kts 84°
2026-05-04 15:16 39.38598 2.73723 11027 ft 347 kts 84°
2026-05-04 15:16 39.38863 2.76842 11588 ft 351 kts 84°
2026-05-04 15:16 39.39386 2.83182 12689 ft 358 kts 84°
2026-05-04 15:17 39.39643 2.86398 13206 ft 361 kts 84°
2026-05-04 15:17 39.40162 2.92871 14175 ft 367 kts 84°
2026-05-04 15:17 39.40425 2.96170 14634 ft 370 kts 84°
2026-05-04 15:18 39.40687 2.99497 15076 ft 373 kts 84°
2026-05-04 15:18 39.40952 3.02847 15499 ft 376 kts 84°
2026-05-04 15:18 39.41220 3.06225 15906 ft 379 kts 84°
2026-05-04 15:19 39.41753 3.13050 16674 ft 384 kts 84°
2026-05-04 15:19 39.42017 3.16448 16944 ft 387 kts 84°
2026-05-04 15:19 39.42628 3.23374 17340 ft 389 kts 78°
2026-05-04 15:20 39.43406 3.26730 17688 ft 392 kts 68°
2026-05-04 15:20 39.44655 3.29868 18016 ft 394 kts 59°
2026-05-04 15:20 39.46069 3.32911 18330 ft 396 kts 59°
2026-05-04 15:20 39.47491 3.35976 18636 ft 398 kts 59°
2026-05-04 15:21 39.48914 3.39058 18929 ft 400 kts 59°
2026-05-04 15:21 39.50340 3.42162 19217 ft 402 kts 59°
2026-05-04 15:21 39.53187 3.48381 19754 ft 406 kts 59°
2026-05-04 15:22 39.54629 3.51539 20016 ft 408 kts 59°
2026-05-04 15:22 39.56076 3.54713 20267 ft 410 kts 59°
2026-05-04 15:22 39.58996 3.61094 20743 ft 413 kts 59°
2026-05-04 15:23 39.60467 3.64305 20970 ft 415 kts 59°
2026-05-04 15:23 39.61938 3.67531 21190 ft 417 kts 59°
2026-05-04 15:23 39.63392 3.70733 21401 ft 418 kts 59°
2026-05-04 15:23 39.64870 3.73986 21606 ft 420 kts 59°
2026-05-04 15:24 39.67845 3.80535 21995 ft 423 kts 59°
2026-05-04 15:24 39.70833 3.87137 22363 ft 425 kts 59°
2026-05-04 15:25 39.72332 3.90454 22540 ft 427 kts 59°
2026-05-04 15:25 39.73837 3.93784 22711 ft 428 kts 59°
2026-05-04 15:25 39.75327 3.97076 22871 ft 429 kts 59°
2026-05-04 15:26 39.78357 4.03785 23175 ft 432 kts 59°
2026-05-04 15:26 39.79876 4.07154 23318 ft 433 kts 60°
2026-05-04 15:26 39.82920 4.13931 23586 ft 435 kts 59°
2026-05-04 15:27 39.84703 4.17103 23708 ft 436 kts 47°
2026-05-04 15:27 39.89564 4.21753 23960 ft 437 kts 24°
2026-05-04 15:28 39.95391 4.23740 24211 ft 438 kts
2026-05-04 15:28 39.98392 4.24435 24336 ft 438 kts 10°
2026-05-04 15:28 40.04404 4.25842 24585 ft 439 kts 10°
2026-05-04 15:29 40.07412 4.26553 24710 ft 439 kts 10°
2026-05-04 15:30 40.19405 4.29407 25207 ft 439 kts 10°
2026-05-04 15:30 40.28424 4.31528 25581 ft 438 kts 10°
2026-05-04 15:31 40.34417 4.32951 25830 ft 437 kts 10°
2026-05-04 15:31 40.37411 4.33663 25955 ft 437 kts 10°
2026-05-04 15:32 40.46335 4.35786 26328 ft 436 kts 10°
2026-05-04 15:32 40.52296 4.37209 26577 ft 435 kts 10°
2026-05-04 15:33 40.58251 4.38633 26826 ft 434 kts 10°
2026-05-04 15:34 40.67117 4.40748 27199 ft 433 kts 10°
2026-05-04 15:34 40.70082 4.41459 27324 ft 433 kts 10°
2026-05-04 15:34 40.76002 4.42884 27573 ft 432 kts 10°
2026-05-04 15:35 40.81909 4.44315 27822 ft 431 kts 10°
2026-05-04 15:35 40.84823 4.45015 27946 ft 431 kts 10°
2026-05-04 15:35 40.87768 4.45723 28071 ft 430 kts 10°
2026-05-04 15:36 40.93660 4.47137 28321 ft 430 kts 10°
2026-05-04 15:36 40.96599 4.47845 28446 ft 429 kts 10°
2026-05-04 15:36 40.99536 4.48555 28571 ft 429 kts 10°
2026-05-04 15:37 41.02469 4.49266 28696 ft 428 kts 10°
2026-05-04 15:37 41.05400 4.49981 28821 ft 428 kts 10°
2026-05-04 15:37 41.08329 4.50697 28946 ft 428 kts 10°
2026-05-04 15:37 41.11215 4.51400 29069 ft 427 kts 10°
2026-05-04 15:38 41.14137 4.52112 29194 ft 427 kts 10°
2026-05-04 15:38 41.17057 4.52825 29319 ft 426 kts 10°
2026-05-04 15:38 41.19973 4.53538 29444 ft 426 kts 10°
2026-05-04 15:38 41.22886 4.54249 29569 ft 426 kts 10°
2026-05-04 15:39 41.25799 4.54959 29694 ft 425 kts 10°
2026-05-04 15:39 41.28705 4.55670 29819 ft 425 kts 10°
2026-05-04 15:39 41.34473 4.57089 30067 ft 424 kts 10°
2026-05-04 15:40 41.37373 4.57799 30192 ft 423 kts 10°
2026-05-04 15:40 41.40270 4.58508 30317 ft 423 kts 10°
2026-05-04 15:40 41.43161 4.59216 30442 ft 422 kts 10°
2026-05-04 15:40 41.46051 4.59924 30567 ft 422 kts 10°
2026-05-04 15:41 41.48939 4.60634 30692 ft 421 kts 10°
2026-05-04 15:41 41.51819 4.61345 30816 ft 421 kts 10°
2026-05-04 15:41 41.53723 4.61817 30899 ft 420 kts 10°
2026-05-04 15:41 41.57530 4.62761 31065 ft 420 kts 10°
2026-05-04 15:42 41.60399 4.63470 31189 ft 419 kts 10°
2026-05-04 15:42 41.63262 4.64174 31314 ft 418 kts 10°
2026-05-04 15:42 41.66120 4.64876 31439 ft 417 kts 10°
2026-05-04 15:42 41.68973 4.65581 31564 ft 417 kts 10°
2026-05-04 15:43 41.71793 4.66447 31688 ft 416 kts 17°
2026-05-04 15:43 41.76195 4.68971 31896 ft 414 kts 30°
2026-05-04 15:43 41.79456 4.71603 32062 ft 413 kts 31°
2026-05-04 15:44 41.81911 4.73584 32186 ft 412 kts 31°
2026-05-04 15:44 41.84366 4.75557 32310 ft 411 kts 31°
2026-05-04 15:44 41.86825 4.77528 31994 ft 418 kts 31°
2026-05-04 15:45 41.90988 4.80862 32009 ft 421 kts 31°
2026-05-04 15:45 41.96040 4.84930 32010 ft 425 kts 31°
2026-05-04 15:46 42.01965 4.89722 32010 ft 430 kts 31°
2026-05-04 15:46 42.06274 4.93214 32009 ft 433 kts 31°
2026-05-04 15:47 42.11418 4.97386 32009 ft 436 kts 31°
2026-05-04 15:47 42.16628 5.01622 32009 ft 439 kts 31°
2026-05-04 15:48 42.22715 5.06592 32009 ft 441 kts 31°
2026-05-04 15:48 42.29729 5.12329 32009 ft 444 kts 31°
2026-05-04 15:49 42.35029 5.16657 32009 ft 446 kts 31°
2026-05-04 15:49 42.41207 5.21715 32009 ft 447 kts 31°
2026-05-04 15:50 42.45669 5.25385 32009 ft 449 kts 31°
2026-05-04 15:50 42.50968 5.29763 32009 ft 450 kts 31°
2026-05-04 15:51 42.56321 5.34177 32009 ft 451 kts 31°
2026-05-04 15:51 42.61678 5.38605 32009 ft 451 kts 31°
2026-05-04 15:52 42.67042 5.43055 32009 ft 452 kts 31°
2026-05-04 15:52 42.72375 5.47486 32009 ft 453 kts 31°
2026-05-04 15:53 42.77752 5.51957 32009 ft 453 kts 31°
2026-05-04 15:53 42.83136 5.56444 32009 ft 454 kts 31°
2026-05-04 15:54 42.88480 5.60912 32009 ft 454 kts 31°
2026-05-04 15:54 42.93869 5.65423 32009 ft 454 kts 31°
2026-05-04 15:55 42.99262 5.69939 32009 ft 455 kts 31°
2026-05-04 15:55 43.04651 5.74478 32009 ft 455 kts 31°
2026-05-04 15:56 43.10009 5.78989 32009 ft 455 kts 31°
2026-05-04 15:56 43.15399 5.83536 32009 ft 456 kts 31°
2026-05-04 15:57 43.20797 5.88106 32009 ft 456 kts 32°
2026-05-04 15:57 43.26195 5.92695 32009 ft 456 kts 32°
2026-05-04 15:58 43.31556 5.97253 32009 ft 457 kts 32°
2026-05-04 15:58 43.37016 6.01702 32007 ft 457 kts 25°
2026-05-04 15:59 43.43055 6.04301 32009 ft 456 kts
2026-05-04 15:59 43.49374 6.05046 32009 ft 456 kts
2026-05-04 16:00 43.55701 6.05683 32009 ft 456 kts
2026-05-04 16:00 43.61992 6.06322 32009 ft 456 kts
2026-05-04 16:01 43.68324 6.06962 32009 ft 456 kts
2026-05-04 16:01 43.74657 6.07686 32005 ft 457 kts
2026-05-04 16:02 43.80708 6.10268 32009 ft 457 kts 26°
2026-05-04 16:03 43.89216 6.16062 32139 ft 454 kts 26°
2026-05-04 16:03 43.92042 6.17984 32262 ft 451 kts 26°
2026-05-04 16:03 43.94850 6.19897 32385 ft 449 kts 26°
2026-05-04 16:03 43.97643 6.21806 32507 ft 446 kts 26°
2026-05-04 16:04 44.00421 6.23709 32631 ft 444 kts 26°
2026-05-04 16:04 44.05925 6.27493 32878 ft 439 kts 26°
2026-05-04 16:04 44.08625 6.29350 33000 ft 437 kts 26°
2026-05-04 16:05 44.11345 6.31223 33124 ft 435 kts 26°
2026-05-04 16:05 44.14053 6.33087 33248 ft 433 kts 26°
2026-05-04 16:05 44.19438 6.36794 33496 ft 430 kts 26°
2026-05-04 16:06 44.22111 6.38639 33619 ft 428 kts 26°
2026-05-04 16:06 44.30024 6.44104 33991 ft 423 kts 26°
2026-05-04 16:07 44.32664 6.45930 34010 ft 424 kts 26°
2026-05-04 16:08 44.43308 6.53327 34009 ft 430 kts 26°
2026-05-04 16:09 44.56745 6.62704 34010 ft 436 kts 26°
2026-05-04 16:10 44.67640 6.70333 34009 ft 439 kts 26°
2026-05-04 16:11 44.78668 6.77668 34009 ft 441 kts 16°
2026-05-04 16:12 44.87803 6.78517 34010 ft 442 kts 357°
2026-05-04 16:12 44.97032 6.77920 34009 ft 443 kts 357°
2026-05-04 16:13 45.09333 6.77124 34009 ft 445 kts 357°
2026-05-04 16:14 45.21726 6.76296 34009 ft 446 kts 357°
2026-05-04 16:16 45.37218 6.75258 34009 ft 448 kts 357°
2026-05-04 16:17 45.52754 6.74210 34009 ft 449 kts 357°
2026-05-04 16:18 45.65235 6.73344 34009 ft 449 kts 357°
2026-05-04 16:19 45.80798 6.72973 34010 ft 450 kts 11°
2026-05-04 16:20 45.89529 6.77823 34008 ft 450 kts 24°
2026-05-04 16:20 45.95238 6.81557 34009 ft 451 kts 24°
2026-05-04 16:22 46.09466 6.90907 34009 ft 451 kts 24°
2026-05-04 16:23 46.26560 7.02194 34009 ft 451 kts 24°
2026-05-04 16:25 46.43702 7.13579 34009 ft 452 kts 25°
2026-05-04 16:26 46.63656 7.26967 34009 ft 452 kts 25°
2026-05-04 16:28 46.77908 7.36555 34009 ft 453 kts 25°
2026-05-04 16:28 46.85980 7.43552 34009 ft 452 kts 44°
2026-05-04 16:29 46.93918 7.57710 34009 ft 452 kts 51°
2026-05-04 16:31 47.03681 7.75755 34009 ft 452 kts 52°
2026-05-04 16:32 47.15098 7.97709 34011 ft 452 kts 58°
2026-05-04 16:33 47.18441 8.05552 33843 ft 456 kts 58°
2026-05-04 16:33 47.21841 8.13556 33343 ft 465 kts 58°
2026-05-04 16:34 47.25243 8.21563 32846 ft 463 kts 58°
2026-05-04 16:34 47.26945 8.25576 32595 ft 461 kts 58°
2026-05-04 16:35 47.32444 8.37023 31844 ft 454 kts 48°
2026-05-04 16:35 47.38671 8.47340 31096 ft 448 kts 48°
2026-05-04 16:36 47.40735 8.50773 30846 ft 446 kts 48°
2026-05-04 16:36 47.44821 8.57591 30346 ft 441 kts 49°
2026-05-04 16:37 47.48864 8.64363 29845 ft 437 kts 49°
2026-05-04 16:37 47.50866 8.67724 29595 ft 435 kts 49°
2026-05-04 16:37 47.54848 8.74415 29094 ft 431 kts 49°
2026-05-04 16:38 47.58749 8.81012 28596 ft 427 kts 51°
2026-05-04 16:39 47.63510 8.92024 27845 ft 421 kts 58°
2026-05-04 16:39 47.66571 8.99370 27345 ft 417 kts 58°
2026-05-04 16:40 47.69600 9.06655 26844 ft 413 kts 58°
2026-05-04 16:40 47.72576 9.13823 26347 ft 408 kts 58°
2026-05-04 16:41 47.75528 9.20904 25445 ft 400 kts 58°
2026-05-04 16:41 47.81370 9.29202 23958 ft 390 kts 21°
2026-05-04 16:42 47.89249 9.30773 22521 ft 381 kts
2026-05-04 16:43 47.94505 9.31173 21592 ft 376 kts
2026-05-04 16:43 47.99698 9.31565 20684 ft 371 kts
2026-05-04 16:43 48.02267 9.31757 20237 ft 369 kts
2026-05-04 16:44 48.12336 9.32525 18511 ft 359 kts
2026-05-04 16:45 48.17287 9.32911 17667 ft 354 kts
2026-05-04 16:46 48.24572 9.34034 16452 ft 347 kts
2026-05-04 16:46 48.29336 9.34880 15668 ft 343 kts
2026-05-04 16:47 48.34039 9.35667 14899 ft 338 kts
2026-05-04 16:47 48.38644 9.35578 14140 ft 332 kts 347°
2026-05-04 16:48 48.45373 9.33422 12982 ft 327 kts 347°
2026-05-04 16:48 48.47590 9.32718 12596 ft 324 kts 347°
2026-05-04 16:49 48.51981 9.31323 11820 ft 321 kts 347°
2026-05-04 16:49 48.56289 9.29949 11045 ft 317 kts 347°
2026-05-04 16:50 48.60569 9.28571 10262 ft 312 kts 347°
2026-05-04 16:50 48.64731 9.27241 9649 ft 303 kts 348°
2026-05-04 16:51 48.68366 9.24418 8842 ft 296 kts 310°
2026-05-04 16:51 48.69383 9.21790 8600 ft 284 kts 288°
2026-05-04 16:51 48.69751 9.16228 8351 ft 255 kts 270°
2026-05-04 16:52 48.69813 9.11088 8095 ft 235 kts 270°
2026-05-04 16:52 48.69845 9.08646 7798 ft 233 kts 270°
2026-05-04 16:53 48.69903 9.03485 6497 ft 253 kts 270°
2026-05-04 16:53 48.69988 8.95681 5293 ft 227 kts 270°
2026-05-04 16:54 48.70010 8.93345 5141 ft 219 kts 270°
2026-05-04 16:55 48.70065 8.84246 5044 ft 217 kts 270°
2026-05-04 16:55 48.70090 8.79690 5043 ft 216 kts 270°
2026-05-04 16:56 48.69375 8.75373 5043 ft 215 kts 237°
2026-05-04 16:56 48.65762 8.72172 5043 ft 208 kts 182°
2026-05-04 16:57 48.64324 8.72330 5044 ft 208 kts 168°
2026-05-04 16:57 48.61556 8.73609 5041 ft 209 kts 149°
2026-05-04 16:58 48.60733 8.79315 5027 ft 201 kts 73°
2026-05-04 16:58 48.61136 8.81342 5037 ft 201 kts 73°
2026-05-04 16:59 48.61919 8.85361 5040 ft 200 kts 74°
2026-05-04 17:00 48.63410 8.93073 4880 ft 189 kts 74°
2026-05-04 17:00 48.64507 8.98761 4167 ft 186 kts 74°
2026-05-04 17:01 48.65222 9.02486 3680 ft 185 kts 74°
2026-05-04 17:01 48.65911 9.06073 3206 ft 168 kts 74°
2026-05-04 17:02 48.66530 9.09309 2778 ft 153 kts 74°
2026-05-04 17:02 48.67111 9.12344 2386 ft 148 kts 74°
2026-05-04 17:03 48.67395 9.13836 2193 ft 147 kts 74°
2026-05-04 17:03 48.67679 9.15319 1997 ft 147 kts 74°
2026-05-04 17:03 48.68239 9.18257 1595 ft 146 kts 74°
2026-05-04 17:04 48.68797 9.21162 1260 ft 133 kts 74°
2026-05-04 17:04 48.69029 9.22418 1229 ft 35 kts 74°
2026-05-04 17:05 48.69175 9.22963 1218 ft 30 kts 50°
2026-05-04 17:05 48.69277 9.23115 1217 ft 0 kts 43°
2026-05-04 17:06 48.69326 9.23160 1219 ft 7 kts 12°
2026-05-04 17:06 48.69367 9.23152 1220 ft 8 kts 336°
2026-05-04 17:07 48.69393 9.22954 1227 ft 14 kts 254°
2026-05-04 17:07 48.69374 9.22854 1229 ft 15 kts 254°
2026-05-04 17:07 48.69336 9.22657 1233 ft 14 kts 253°
2026-05-04 17:07 48.69301 9.22475 1236 ft 23 kts 253°
2026-05-04 17:08 48.69260 9.22257 1241 ft 21 kts 253°
2026-05-04 17:08 48.69182 9.21845 1251 ft 19 kts 253°
2026-05-04 17:08 48.69146 9.21653 1256 ft 19 kts 254°
2026-05-04 17:09 48.69111 9.21470 1260 ft 18 kts 254°
2026-05-04 17:09 48.69080 9.21305 1264 ft 14 kts 254°
2026-05-04 17:09 48.69053 9.21164 1267 ft 13 kts 254°
2026-05-04 17:10 48.69008 9.20929 1273 ft 9 kts 253°
2026-05-04 17:10 48.68957 9.20661 1279 ft 12 kts 254°
2026-05-04 17:11 48.68935 9.20537 1282 ft 11 kts 255°
2026-05-04 17:11 48.68918 9.20445 1285 ft 7 kts 254°
2026-05-04 17:11 48.68883 9.20270 1289 ft 12 kts 253°
2026-05-04 17:12 48.68862 9.20163 1292 ft 10 kts 254°
2026-05-04 17:12 48.68788 9.19925 1295 ft 14 kts 231°
2026-05-04 17:13 48.68697 9.19531 1305 ft 12 kts 254°
2026-05-04 17:14 48.68663 9.19171 1316 ft 6 kts 326°
2026-05-04 17:14 48.68709 9.19148 1318 ft 11 kts 344°
2026-05-04 17:14 48.68789 9.19285 1315 ft 11 kts 73°
2026-05-04 17:15 48.68811 9.19380 1313 ft 8 kts 46°
2026-05-04 17:15 48.68855 9.19373 1315 ft 1 kts 343°
2026-05-04 17:16 48.68880 9.19361 1315 ft 1 kts 343°
2026-05-04 17:16 48.68884 9.19359 1315 ft 0 kts 343°